Location: Hannover
(52.3723°N, 9.7339°E)
Time: 00:34:24
(UTC+02:00)

ISS - Visible Passes

Search period start: 25 July 2017 00:00
Search period end: 04 August 2017 00:00
Orbit: 400 x 408 km, 51.6° (Epoch: 25 July)

Date Brightness Start Highest point End Pass type
(mag) Time Alt. Az. Time Alt. Az. Time Alt. Az.
25 Jul -4.0 00:07:38 10° WSW 00:10:52 66° SSE 00:14:06 10° E visible
25 Jul -4.0 01:44:02 10° W 01:47:17 74° S 01:50:33 10° ESE visible
25 Jul -3.1 03:20:35 10° W 03:23:31 31° SSW 03:26:27 10° SE visible
25 Jul -3.8 23:15:25 10° WSW 23:18:35 52° SSE 23:21:47 10° E visible
26 Jul -4.0 00:51:42 10° W 00:54:57 80° S 00:56:43 25° E visible
26 Jul -1.9 02:28:10 10° W 02:29:15 19° W 02:29:15 19° W visible
26 Jul -3.3 22:23:16 10° SW 22:26:20 38° SSE 22:29:24 10° E visible
26 Jul -4.0 23:59:22 10° W 00:02:38 79° S 00:05:18 14° E visible
27 Jul -2.9 01:35:48 10° W 01:37:54 34° WSW 01:37:54 34° WSW visible
27 Jul -3.9 23:07:02 10° WSW 23:10:17 70° S 23:13:32 10° E visible
28 Jul -4.0 00:43:27 10° W 00:46:42 71° S 00:46:54 68° SSE visible
28 Jul -3.8 22:14:45 10° WSW 22:17:57 57° SSE 22:21:10 10° E visible
28 Jul -4.0 23:51:05 10° W 23:54:21 79° S 23:56:01 26° E visible
29 Jul -1.8 01:27:34 10° W 01:28:38 18° W 01:28:38 18° W visible
29 Jul -3.9 22:58:43 10° W 23:01:59 80° S 23:05:12 10° E visible
30 Jul -3.4 00:35:10 10° W 00:37:49 46° SW 00:37:49 46° SW visible
30 Jul -3.9 22:06:20 10° WSW 22:09:36 74° S 22:12:51 10° E visible
30 Jul -3.9 23:42:46 10° W 23:46:00 67° SSW 23:47:01 39° ESE visible
31 Jul -1.2 01:19:25 10° W 01:19:38 11° W 01:19:38 11° W visible
31 Jul -3.9 22:50:22 10° W 22:53:37 77° S 22:56:14 15° E visible
01 Aug -2.5 00:26:52 10° W 00:28:51 27° WSW 00:28:51 27° WSW visible
01 Aug -3.9 21:57:57 10° W 22:01:12 80° S 22:04:28 10° E visible
01 Aug -3.6 23:34:24 10° W 23:37:34 48° SSW 23:38:06 42° SSE visible
02 Aug -3.8 22:41:57 10° W 22:45:11 62° SSW 22:47:21 19° ESE visible
03 Aug -1.7 00:18:42 10° W 00:19:58 17° WSW 00:19:58 17° WSW visible
03 Aug -3.8 21:49:31 10° W 21:52:46 74° S 21:56:01 10° ESE visible
03 Aug -2.9 23:26:03 10° W 23:29:00 31° SSW 23:29:15 30° SSW visible
